^^
Your Local Weather - Clay, NY Station Historical Data
Daily Summary for December 7, 2017 Units:  English    Metric   Both
« Previous Day
Next Day »
Daily Weekly Monthly Yearly Custom
  High: Low: Average:
Temperature: 36.3 °F 28.1 °F 33.2 °F
Dew Point: 27.7 °F 19.6 °F 22.6 °F
Humidity: 82% 53% 65%
Wind Speed: 6.0mph 0.0mph 3.3mph
Wind Gust: 13.0mph - -
Wind- - WSW
Pressure: 29.94 in 29.85 in -
Precipitation: 0.00 in    
Historical Graphs
 
 
Tabular Data for December 7, 2017
Time Temperature Dew Point Pressure Wind Wind Speed Wind Gust Humidity Rainfall Rate (Hourly) solar
00:04 36.3 °F 24.1 °F 29.86 in SW 4.0 mph 9.0 mph 61% 0.00 in 0 W/m2
00:10 36.3 °F 23.7 °F 29.86 in WSW 4.0 mph 4.0 mph 60% 0.00 in 0 W/m2
00:16 36.3 °F 23.3 °F 29.85 in WSW 4.0 mph 7.0 mph 59% 0.00 in 0 W/m2
00:22 36.3 °F 23.3 °F 29.85 in WSW 5.0 mph 5.0 mph 59% 0.00 in 0 W/m2
00:30 36.3 °F 22.9 °F 29.85 in SSW 4.0 mph 7.0 mph 58% 0.00 in 0 W/m2
00:36 36.2 °F 22.8 °F 29.85 in West 4.0 mph 7.0 mph 58% 0.00 in 0 W/m2
00:42 36.1 °F 23.1 °F 29.85 in WSW 4.0 mph 4.0 mph 59% 0.00 in 0 W/m2
00:48 36.1 °F 23.1 °F 29.85 in SW 3.0 mph 5.0 mph 59% 0.00 in 0 W/m2
00:54 36.0 °F 23.0 °F 29.85 in West 3.0 mph 4.0 mph 59% 0.00 in 0 W/m2
01:00 35.9 °F 23.0 °F 29.85 in West 4.0 mph 4.0 mph 59% 0.00 in 0 W/m2
01:06 35.8 °F 22.9 °F 29.85 in West 4.0 mph 6.0 mph 59% 0.00 in 0 W/m2
01:12 35.5 °F 22.6 °F 29.85 in WSW 4.0 mph 6.0 mph 59% 0.00 in 0 W/m2
01:18 35.4 °F 22.5 °F 29.85 in WSW 4.0 mph 6.0 mph 59% 0.00 in 0 W/m2
01:24 35.3 °F 22.4 °F 29.85 in SSW 4.0 mph 6.0 mph 59% 0.00 in 0 W/m2
01:30 35.2 °F 21.9 °F 29.86 in WSW 4.0 mph 4.0 mph 58% 0.00 in 0 W/m2
01:36 35.2 °F 21.9 °F 29.86 in West 4.0 mph 4.0 mph 58% 0.00 in 0 W/m2
01:42 35.2 °F 22.3 °F 29.86 in WSW 4.0 mph 4.0 mph 59% 0.00 in 0 W/m2
01:48 35.2 °F 22.3 °F 29.87 in WNW 3.0 mph 4.0 mph 59% 0.00 in 0 W/m2
01:54 35.3 °F 22.4 °F 29.87 in West 3.0 mph 7.0 mph 59% 0.00 in 0 W/m2
02:00 35.4 °F 22.1 °F 29.87 in WSW 4.0 mph 4.0 mph 58% 0.00 in 0 W/m2
02:06 35.5 °F 22.2 °F 29.88 in SW 4.0 mph 4.0 mph 58% 0.00 in 0 W/m2
02:12 35.4 °F 22.1 °F 29.88 in WNW 3.0 mph 4.0 mph 58% 0.00 in 0 W/m2
02:18 35.4 °F 21.7 °F 29.88 in West 4.0 mph 4.0 mph 57% 0.00 in 0 W/m2
02:24 35.4 °F 21.7 °F 29.88 in WSW 4.0 mph 4.0 mph 57% 0.00 in 0 W/m2
02:30 35.4 °F 22.1 °F 29.88 in West 3.0 mph 6.0 mph 58% 0.00 in 0 W/m2
02:36 35.3 °F 21.6 °F 29.88 in SW 3.0 mph 6.0 mph 57% 0.00 in 0 W/m2
02:42 35.3 °F 21.6 °F 29.88 in West 3.0 mph 5.0 mph 57% 0.00 in 0 W/m2
02:48 35.4 °F 21.2 °F 29.88 in West 4.0 mph 6.0 mph 56% 0.00 in 0 W/m2
02:54 35.3 °F 21.2 °F 29.88 in WSW 3.0 mph 4.0 mph 56% 0.00 in 0 W/m2
03:00 35.3 °F 20.7 °F 29.88 in West 3.0 mph 3.0 mph 55% 0.00 in 0 W/m2
03:06 35.3 °F 20.7 °F 29.88 in WSW 3.0 mph 7.0 mph 55% 0.00 in 0 W/m2
03:12 35.3 °F 20.3 °F 29.88 in WSW 4.0 mph 6.0 mph 54% 0.00 in 0 W/m2
03:18 35.3 °F 19.9 °F 29.88 in West 4.0 mph 6.0 mph 53% 0.00 in 0 W/m2
03:24 35.3 °F 20.3 °F 29.88 in SW 3.0 mph 13.0 mph 54% 0.00 in 0 W/m2
03:30 35.2 °F 20.2 °F 29.88 in WSW 4.0 mph 4.0 mph 54% 0.00 in 0 W/m2
03:36 35.2 °F 20.2 °F 29.88 in WSW 4.0 mph 5.0 mph 54% 0.00 in 0 W/m2
03:42 35.2 °F 20.2 °F 29.88 in WSW 4.0 mph 10.0 mph 54% 0.00 in 0 W/m2
03:44 35.2 °F 20.2 °F 29.88 in SW 4.0 mph 10.0 mph 54% 0.00 in 0 W/m2
03:50 35.1 °F 20.1 °F 29.88 in WSW 5.0 mph 5.0 mph 54% 0.00 in 0 W/m2
03:56 35.0 °F 20.4 °F 29.88 in WSW 3.0 mph 5.0 mph 55% 0.00 in 0 W/m2
04:02 35.0 °F 20.4 °F 29.88 in SW 3.0 mph 5.0 mph 55% 0.00 in 0 W/m2
04:08 35.0 °F 20.4 °F 29.88 in WSW 3.0 mph 5.0 mph 55% 0.00 in 0 W/m2
04:14 35.0 °F 20.4 °F 29.88 in WSW 3.0 mph 9.0 mph 55% 0.00 in 0 W/m2
04:20 35.0 °F 20.4 °F 29.87 in WSW 3.0 mph 3.0 mph 55% 0.00 in 0 W/m2
04:26 35.0 °F 20.4 °F 29.87 in WSW 4.0 mph 8.0 mph 55% 0.00 in 0 W/m2
04:32 34.9 °F 20.4 °F 29.87 in SW 4.0 mph 7.0 mph 55% 0.00 in 0 W/m2
04:38 34.9 °F 20.8 °F 29.88 in West 3.0 mph 7.0 mph 56% 0.00 in 0 W/m2
04:44 34.8 °F 20.7 °F 29.88 in West 3.0 mph 6.0 mph 56% 0.00 in 0 W/m2
04:50 34.7 °F 21.0 °F 29.87 in WSW 3.0 mph 4.0 mph 57% 0.00 in 0 W/m2
04:56 34.7 °F 21.0 °F 29.87 in WSW 4.0 mph 7.0 mph 57% 0.00 in 0 W/m2
05:02 34.6 °F 20.5 °F 29.88 in WSW 4.0 mph 4.0 mph 56% 0.00 in 0 W/m2
05:08 34.6 °F 20.9 °F 29.88 in WSW 3.0 mph 4.0 mph 57% 0.00 in 0 W/m2
05:14 34.5 °F 21.2 °F 29.88 in WSW 3.0 mph 5.0 mph 58% 0.00 in 0 W/m2
05:20 34.5 °F 20.8 °F 29.88 in WSW 4.0 mph 4.0 mph 57% 0.00 in 0 W/m2
05:26 34.5 °F 21.2 °F 29.88 in SW 4.0 mph 5.0 mph 58% 0.00 in 0 W/m2
05:32 34.5 °F 20.8 °F 29.88 in WSW 3.0 mph 3.0 mph 57% 0.00 in 0 W/m2
05:38 34.4 °F 21.1 °F 29.88 in WSW 3.0 mph 4.0 mph 58% 0.00 in 0 W/m2
05:44 34.5 °F 20.8 °F 29.89 in West 4.0 mph 6.0 mph 57% 0.00 in 0 W/m2
05:50 34.5 °F 20.8 °F 29.88 in WSW 4.0 mph 4.0 mph 57% 0.00 in 0 W/m2
05:56 34.4 °F 20.7 °F 29.89 in WSW 4.0 mph 7.0 mph 57% 0.00 in 0 W/m2
06:02 34.4 °F 21.1 °F 29.89 in WSW 4.0 mph 7.0 mph 58% 0.00 in 0 W/m2
06:08 34.3 °F 21.4 °F 29.89 in WSW 3.0 mph 7.0 mph 59% 0.00 in 0 W/m2
06:14 34.2 °F 21.4 °F 29.89 in SW 3.0 mph 3.0 mph 59% 0.00 in 0 W/m2
06:20 34.3 °F 21.0 °F 29.89 in West 3.0 mph 3.0 mph 58% 0.00 in 0 W/m2
06:26 34.2 °F 21.4 °F 29.89 in SW 3.0 mph 5.0 mph 59% 0.00 in 0 W/m2
06:32 34.2 °F 21.4 °F 29.89 in West 3.0 mph 3.0 mph 59% 0.00 in 0 W/m2
06:38 34.1 °F 21.3 °F 29.89 in West 3.0 mph 3.0 mph 59% 0.00 in 0 W/m2
06:44 34.1 °F 21.3 °F 29.89 in WSW 3.0 mph 3.0 mph 59% 0.00 in 0 W/m2
06:50 34.1 °F 21.3 °F 29.90 in WSW 4.0 mph 4.0 mph 59% 0.00 in 0 W/m2
06:56 34.0 °F 21.6 °F 29.90 in West 3.0 mph 4.0 mph 60% 0.00 in 0 W/m2
07:02 33.9 °F 21.5 °F 29.90 in WSW 3.0 mph 4.0 mph 60% 0.00 in 0 W/m2
07:08 33.9 °F 21.5 °F 29.90 in West 3.0 mph 4.0 mph 60% 0.00 in 0 W/m2
07:14 33.8 °F 21.8 °F 29.90 in West 2.0 mph 5.0 mph 61% 0.00 in 0 W/m2
07:20 33.8 °F 21.8 °F 29.90 in SW 2.0 mph 2.0 mph 61% 0.00 in 0 W/m2
07:26 33.7 °F 22.1 °F 29.90 in SW 3.0 mph 3.0 mph 62% 0.00 in 0 W/m2
07:44 33.6 °F 22.0 °F 29.90 in West 3.0 mph 6.0 mph 62% 0.00 in 5 W/m2
07:50 33.6 °F 22.0 °F 29.90 in WSW 3.0 mph 3.0 mph 62% 0.00 in 7 W/m2
07:56 33.6 °F 22.0 °F 29.90 in WSW 2.0 mph 3.0 mph 62% 0.00 in 9 W/m2
08:02 33.6 °F 22.0 °F 29.90 in SW 2.0 mph 7.0 mph 62% 0.00 in 11 W/m2
08:08 33.6 °F 22.0 °F 29.90 in SW 3.0 mph 7.0 mph 62% 0.00 in 12 W/m2
08:14 33.6 °F 22.0 °F 29.90 in WSW 2.0 mph 6.0 mph 62% 0.00 in 19 W/m2
08:26 33.7 °F 22.1 °F 29.90 in SW 4.0 mph 8.0 mph 62% 0.00 in 23 W/m2
08:44 33.8 °F 22.1 °F 29.90 in West 3.0 mph 7.0 mph 62% 0.00 in 35 W/m2
08:50 33.8 °F 21.8 °F 29.90 in SW 3.0 mph 3.0 mph 61% 0.00 in 39 W/m2
08:56 33.9 °F 21.9 °F 29.90 in West 4.0 mph 7.0 mph 61% 0.00 in 33 W/m2
09:02 33.9 °F 21.9 °F 29.91 in WSW 4.0 mph 7.0 mph 61% 0.00 in 33 W/m2
09:08 33.9 °F 21.9 °F 29.91 in SW 4.0 mph 8.0 mph 61% 0.00 in 30 W/m2
09:14 33.9 °F 21.9 °F 29.91 in SW 4.0 mph 4.0 mph 61% 0.00 in 35 W/m2
09:26 33.5 °F 22.6 °F 29.91 in SW 6.0 mph 11.0 mph 64% 0.00 in 67 W/m2
09:32 33.3 °F 22.8 °F 29.91 in WSW 6.0 mph 6.0 mph 65% 0.00 in 53 W/m2
09:38 33.2 °F 23.1 °F 29.91 in WSW 6.0 mph 6.0 mph 66% 0.00 in 51 W/m2
09:50 33.1 °F 23.3 °F 29.92 in SW 5.0 mph 7.0 mph 67% 0.00 in 47 W/m2
09:56 33.1 °F 23.7 °F 29.92 in West 4.0 mph 7.0 mph 68% 0.00 in 49 W/m2
10:08 33.1 °F 24.4 °F 29.92 in WSW 3.0 mph 6.0 mph 70% 0.00 in 65 W/m2
10:14 33.0 °F 24.6 °F 29.93 in SW 2.0 mph 5.0 mph 71% 0.00 in 58 W/m2
10:20 32.5 °F 24.8 °F 29.93 in WSW 3.0 mph 3.0 mph 73% 0.00 in 51 W/m2
10:26 32.1 °F 25.4 °F 29.93 in SW 3.0 mph 5.0 mph 76% 0.00 in 40 W/m2
10:32 31.7 °F 25.6 °F 29.93 in SW 3.0 mph 3.0 mph 78% 0.00 in 58 W/m2
10:44 31.5 °F 26.6 °F 29.92 in South 3.0 mph 4.0 mph 82% 0.00 in 109 W/m2
10:52 31.7 °F 26.8 °F 29.92 in SW 4.0 mph 4.0 mph 82% 0.00 in 202 W/m2
11:04 32.5 °F 27.3 °F 29.92 in SSW 3.0 mph 4.0 mph 81% 0.00 in 181 W/m2
11:10 32.7 °F 27.2 °F 29.92 in WSW 3.0 mph 5.0 mph 80% 0.00 in 183 W/m2
11:16 32.8 °F 27.3 °F 29.91 in SW 3.0 mph 5.0 mph 80% 0.00 in 160 W/m2
11:28 33.5 °F 27.7 °F 29.91 in SW 2.0 mph 5.0 mph 79% 0.00 in 206 W/m2
11:34 33.5 °F 27.4 °F 29.91 in SW 3.0 mph 4.0 mph 78% 0.00 in 176 W/m2
11:46 33.6 °F 27.2 °F 29.90 in SW 3.0 mph 6.0 mph 77% 0.00 in 202 W/m2
11:52 33.8 °F 27.0 °F 29.90 in West 3.0 mph 5.0 mph 76% 0.00 in 204 W/m2
11:58 33.9 °F 26.8 °F 29.90 in SW 4.0 mph 6.0 mph 75% 0.00 in 200 W/m2
12:04 34.1 °F 26.7 °F 29.90 in WNW 3.0 mph 5.0 mph 74% 0.00 in 193 W/m2
12:10 34.3 °F 26.5 °F 29.90 in WSW 4.0 mph 4.0 mph 73% 0.00 in 167 W/m2
12:16 34.2 °F 26.4 °F 29.89 in SW 4.0 mph 5.0 mph 73% 0.00 in 195 W/m2
12:28 34.2 °F 26.4 °F 29.88 in SW 4.0 mph 8.0 mph 73% 0.00 in 116 W/m2
12:34 34.0 °F 26.6 °F 29.88 in WSW 5.0 mph 5.0 mph 74% 0.00 in 102 W/m2
12:40 34.0 °F 25.9 °F 29.88 in SW 4.0 mph 4.0 mph 72% 0.00 in 139 W/m2
12:46 34.0 °F 25.2 °F 29.88 in SW 5.0 mph 5.0 mph 70% 0.00 in 172 W/m2
12:52 34.1 °F 25.0 °F 29.88 in West 6.0 mph 7.0 mph 69% 0.00 in 179 W/m2
12:58 34.3 °F 24.8 °F 29.87 in WSW 5.0 mph 7.0 mph 68% 0.00 in 156 W/m2
13:04 34.4 °F 24.6 °F 29.87 in West 4.0 mph 5.0 mph 67% 0.00 in 144 W/m2
13:10 34.4 °F 24.2 °F 29.87 in SW 5.0 mph 11.0 mph 66% 0.00 in 128 W/m2
13:16 34.2 °F 24.0 °F 29.87 in SW 5.0 mph 11.0 mph 66% 0.00 in 121 W/m2
13:22 34.5 °F 24.7 °F 29.86 in WSW 3.0 mph 4.0 mph 67% 0.00 in 123 W/m2
13:28 34.7 °F 24.1 °F 29.86 in NNW 3.0 mph 7.0 mph 65% 0.00 in 104 W/m2
13:34 34.7 °F 23.8 °F 29.86 in South 4.0 mph 6.0 mph 64% 0.00 in 105 W/m2
13:46 34.5 °F 23.6 °F 29.86 in WSW 5.0 mph 7.0 mph 64% 0.00 in 113 W/m2
13:58 34.5 °F 22.8 °F 29.86 in West 4.0 mph 7.0 mph 62% 0.00 in 88 W/m2
14:04 34.5 °F 22.8 °F 29.86 in West 3.0 mph 4.0 mph 62% 0.00 in 74 W/m2
14:10 34.4 °F 22.7 °F 29.86 in SW 4.0 mph 7.0 mph 62% 0.00 in 56 W/m2
14:16 34.3 °F 22.6 °F 29.86 in WSW 5.0 mph 11.0 mph 62% 0.00 in 51 W/m2
14:22 34.2 °F 22.5 °F 29.86 in SSW 5.0 mph 6.0 mph 62% 0.00 in 40 W/m2
14:28 34.1 °F 22.4 °F 29.86 in NW 5.0 mph 7.0 mph 62% 0.00 in 44 W/m2
14:34 34.0 °F 22.7 °F 29.86 in WSW 5.0 mph 8.0 mph 63% 0.00 in 35 W/m2
14:40 33.9 °F 22.6 °F 29.86 in West 5.0 mph 5.0 mph 63% 0.00 in 42 W/m2
14:46 34.0 °F 23.1 °F 29.85 in SW 4.0 mph 7.0 mph 64% 0.00 in 51 W/m2
14:52 34.0 °F 23.1 °F 29.85 in SW 3.0 mph 4.0 mph 64% 0.00 in 62 W/m2
14:58 34.1 °F 23.2 °F 29.85 in SW 4.0 mph 7.0 mph 64% 0.00 in 44 W/m2
15:10 33.8 °F 23.3 °F 29.86 in WSW 3.0 mph 3.0 mph 65% 0.00 in 25 W/m2
15:22 33.8 °F 23.3 °F 29.86 in SSW 3.0 mph 4.0 mph 65% 0.00 in 23 W/m2
15:28 33.9 °F 23.4 °F 29.86 in West 3.0 mph 4.0 mph 65% 0.00 in 46 W/m2
15:34 33.9 °F 23.4 °F 29.86 in West 3.0 mph 3.0 mph 65% 0.00 in 18 W/m2
15:40 33.9 °F 23.4 °F 29.86 in SW 3.0 mph 7.0 mph 65% 0.00 in 11 W/m2
15:46 33.7 °F 23.9 °F 29.86 in SW 4.0 mph 7.0 mph 67% 0.00 in 14 W/m2
15:52 33.4 °F 23.6 °F 29.86 in WNW 4.0 mph 8.0 mph 67% 0.00 in 14 W/m2
15:58 33.4 °F 23.6 °F 29.86 in West 3.0 mph 8.0 mph 67% 0.00 in 12 W/m2
16:04 33.4 °F 24.0 °F 29.86 in SW 2.0 mph 4.0 mph 68% 0.00 in 11 W/m2
16:16 33.2 °F 23.8 °F 29.86 in West 3.0 mph 9.0 mph 68% 0.00 in 7 W/m2
16:22 33.1 °F 24.0 °F 29.86 in West 1.0 mph 2.0 mph 69% 0.00 in 5 W/m2
16:28 32.9 °F 23.8 °F 29.86 in West 1.0 mph 3.0 mph 69% 0.00 in 0 W/m2
16:34 32.8 °F 24.1 °F 29.87 in WNW 2.0 mph 2.0 mph 70% 0.00 in 0 W/m2
16:40 32.7 °F 23.6 °F 29.87 in WNW 3.0 mph 6.0 mph 69% 0.00 in 0 W/m2
16:46 32.5 °F 22.8 °F 29.87 in WSW 5.0 mph 6.0 mph 67% 0.00 in 0 W/m2
16:52 32.2 °F 22.8 °F 29.87 in WSW 4.0 mph 6.0 mph 68% 0.00 in 0 W/m2
17:10 31.4 °F 23.1 °F 29.88 in WSW 5.0 mph 5.0 mph 71% 0.00 in 0 W/m2
17:22 31.2 °F 23.5 °F 29.88 in West 4.0 mph 7.0 mph 73% 0.00 in 0 W/m2
17:28 31.2 °F 23.9 °F 29.88 in West 4.0 mph 7.0 mph 74% 0.00 in 0 W/m2
17:34 31.1 °F 24.1 °F 29.89 in West 4.0 mph 6.0 mph 75% 0.00 in 0 W/m2
17:40 31.0 °F 24.0 °F 29.89 in WSW 3.0 mph 4.0 mph 75% 0.00 in 0 W/m2
17:46 31.0 °F 24.0 °F 29.89 in WSW 3.0 mph 4.0 mph 75% 0.00 in 0 W/m2
17:52 31.0 °F 23.7 °F 29.89 in WSW 3.0 mph 5.0 mph 74% 0.00 in 0 W/m2
18:04 30.8 °F 23.8 °F 29.90 in WSW 2.0 mph 3.0 mph 75% 0.00 in 0 W/m2
18:10 30.7 °F 23.7 °F 29.89 in SW 3.0 mph 3.0 mph 75% 0.00 in 0 W/m2
18:16 30.6 °F 23.3 °F 29.90 in West 3.0 mph 5.0 mph 74% 0.00 in 0 W/m2
18:22 30.6 °F 23.3 °F 29.90 in WSW 3.0 mph 4.0 mph 74% 0.00 in 0 W/m2
18:34 30.5 °F 23.2 °F 29.90 in WSW 3.0 mph 7.0 mph 74% 0.00 in 0 W/m2
18:40 30.4 °F 23.1 °F 29.90 in WSW 3.0 mph 3.0 mph 74% 0.00 in 0 W/m2
18:46 30.4 °F 23.1 °F 29.90 in WSW 3.0 mph 5.0 mph 74% 0.00 in 0 W/m2
18:58 30.2 °F 22.9 °F 29.90 in WSW 1.0 mph 3.0 mph 74% 0.00 in 0 W/m2
19:04 30.1 °F 22.8 °F 29.90 in West 2.0 mph 3.0 mph 74% 0.00 in 0 W/m2
19:10 30.0 °F 22.7 °F 29.91 in WSW 2.0 mph 3.0 mph 74% 0.00 in 0 W/m2
19:16 29.9 °F 22.6 °F 29.91 in WSW 2.0 mph 4.0 mph 74% 0.00 in 0 W/m2
19:22 29.8 °F 22.8 °F 29.91 in SW 2.0 mph 2.0 mph 75% 0.00 in 0 W/m2
19:28 29.8 °F 22.8 °F 29.91 in SW 1.0 mph 2.0 mph 75% 0.00 in 0 W/m2
19:40 29.9 °F 22.9 °F 29.91 in Calm     75% 0.00 in 0 W/m2
19:46 29.8 °F 22.8 °F 29.91 in Calm     75% 0.00 in 0 W/m2
19:52 29.9 °F 23.3 °F 29.91 in Calm     76% 0.00 in 0 W/m2
19:58 29.9 °F 22.9 °F 29.91 in SW 1.0 mph 1.0 mph 75% 0.00 in 0 W/m2
20:04 30.0 °F 23.0 °F 29.91 in SW 1.0 mph 1.0 mph 75% 0.00 in 0 W/m2
20:10 30.2 °F 23.2 °F 29.92 in West 1.0 mph 2.0 mph 75% 0.00 in 0 W/m2
20:16 30.4 °F 23.1 °F 29.91 in West 1.0 mph 2.0 mph 74% 0.00 in 0 W/m2
20:22 30.4 °F 23.1 °F 29.92 in West 1.0 mph 1.0 mph 74% 0.00 in 0 W/m2
20:28 30.4 °F 22.8 °F 29.92 in WSW 1.0 mph 4.0 mph 73% 0.00 in 0 W/m2
20:34 30.4 °F 22.8 °F 29.93 in SSW 1.0 mph 2.0 mph 73% 0.00 in 0 W/m2
20:40 30.4 °F 22.8 °F 29.93 in WSW 1.0 mph 6.0 mph 73% 0.00 in 0 W/m2
20:46 30.4 °F 22.4 °F 29.92 in West 1.0 mph 6.0 mph 72% 0.00 in 0 W/m2
20:52 30.4 °F 22.4 °F 29.93 in West 2.0 mph 5.0 mph 72% 0.00 in 0 W/m2
20:58 30.4 °F 22.4 °F 29.93 in WSW 2.0 mph 6.0 mph 72% 0.00 in 0 W/m2
21:04 30.4 °F 22.8 °F 29.93 in WSW 2.0 mph 3.0 mph 73% 0.00 in 0 W/m2
21:10 30.5 °F 22.9 °F 29.93 in WSW 2.0 mph 2.0 mph 73% 0.00 in 0 W/m2
21:16 30.5 °F 22.5 °F 29.93 in WSW 3.0 mph 3.0 mph 72% 0.00 in 0 W/m2
21:22 30.5 °F 22.5 °F 29.93 in WSW 3.0 mph 3.0 mph 72% 0.00 in 0 W/m2
21:28 30.5 °F 22.5 °F 29.93 in WSW 3.0 mph 4.0 mph 72% 0.00 in 0 W/m2
21:34 30.5 °F 22.2 °F 29.93 in SSW 3.0 mph 4.0 mph 71% 0.00 in 0 W/m2
21:40 30.5 °F 21.9 °F 29.93 in WSW 4.0 mph 4.0 mph 70% 0.00 in 0 W/m2
21:46 30.6 °F 21.6 °F 29.93 in West 4.0 mph 11.0 mph 69% 0.00 in 0 W/m2
21:52 30.7 °F 21.0 °F 29.93 in WSW 4.0 mph 5.0 mph 67% 0.00 in 0 W/m2
21:58 30.7 °F 21.0 °F 29.93 in SSW 5.0 mph 6.0 mph 67% 0.00 in 0 W/m2
22:04 30.6 °F 20.9 °F 29.93 in SW 6.0 mph 11.0 mph 67% 0.00 in 0 W/m2
22:10 30.5 °F 20.5 °F 29.93 in WNW 5.0 mph 7.0 mph 66% 0.00 in 0 W/m2
22:16 30.4 °F 20.4 °F 29.93 in West 6.0 mph 7.0 mph 66% 0.00 in 0 W/m2
22:24 30.3 °F 20.3 °F 29.93 in WSW 5.0 mph 5.0 mph 66% 0.00 in 0 W/m2
22:30 30.2 °F 20.6 °F 29.94 in SW 5.0 mph 9.0 mph 67% 0.00 in 0 W/m2
22:48 29.5 °F 20.2 °F 29.94 in WSW 3.0 mph 5.0 mph 68% 0.00 in 0 W/m2
22:54 29.4 °F 20.1 °F 29.94 in West 4.0 mph 6.0 mph 68% 0.00 in 0 W/m2
23:06 29.1 °F 19.8 °F 29.94 in WSW 3.0 mph 5.0 mph 68% 0.00 in 0 W/m2
23:12 28.9 °F 19.7 °F 29.94 in SW 3.0 mph 4.0 mph 68% 0.00 in 0 W/m2
23:24 28.6 °F 19.7 °F 29.94 in West 3.0 mph 4.0 mph 69% 0.00 in 0 W/m2
23:30 28.5 °F 19.6 °F 29.94 in SW 3.0 mph 3.0 mph 69% 0.00 in 0 W/m2
23:42 28.2 °F 20.0 °F 29.93 in WSW 3.0 mph 4.0 mph 71% 0.00 in 0 W/m2
23:48 28.1 °F 19.9 °F 29.93 in SW 3.0 mph 5.0 mph 71% 0.00 in 0 W/m2
Country Meadow, Clay, NY, USA
Compliments of Weather Underground - 2 mb